Buy-Sell-Trade

buy-sell-trade

Do you have an item you’d like to buy, sell, or trade? Tune in for WRMJ BUY-SELL-TRADE on Saturday mornings at 8:30.

Call 582-5626 to broadcast up to four items! The best part? It’s free!

NOTES:

  • We no longer accept BST items submitted in advance of the program airing. All items must be phoned in during the BST broadcast. 
  • All current and past BST items are now listed together. Use the Search and Sort features to locate the date, type, item or phone number you’re looking for.

TERMS & CONDITIONS.

DATETYPEITEMPHONE
7/9/16FSSTEAM CLEANER - $25561-543-5655 -
in Aledo
7/9/16FS2 BAGS OF MYSTERY & ROMANCE BOOKS - $5309-582-5408
7/9/16FS5 PORCELAIN DOLLS - $20309-582-5408
7/9/16FSCOMPUTER DESK - $10309-582-5408
7/9/16LFTRANSFER WHEELCHAIR309-371-9560
7/9/16LFLARGE PRINT BOOKS309-371-9560
7/9/16LF25TH ANNIVERSARY RHUBARBFEST COOKBOOK309-371-9560
7/9/16LFELECTRIC LAWN MOWER309-371-9560
7/9/16FSPOULAN 14" CHAIN SAW - $85309-337-1316
7/9/16FSHOMELITE 16" CHAIN SAW w/CASE - $100309-337-1316
7/9/16FS25 GALLON AIR COMPRESSOR - $50309-945-8796
7/9/16FS20 - 2x4 STUDS - $30309-945-8796
7/9/16FSPULL BEHIND LAWN THATCHER/SWEEPER - $40309-945-8796
7/9/16FREE20 cu. ft. CHEST FREEZER, WEAK SEAL309-235-1675
7/9/16FSJOHN DEERE XL75 RIDING MOWER, 30" DECK - $300309-768-2675
7/9/16FSREFRIGERATOR - $10309-768-2675
7/9/16FSAIR COMPRESSOR ON WHEELS - $20309-534-8288
7/9/16FSLAMINATED DRAFTING BOARD 24" x 36" - $15309-534-8288
7/9/16FSMAPLE BEDROOM DRESSER - $50309-534-8288
7/9/16FSREFRIGERATOR, GC - $85309-738-7820
7/9/16FSBROWN UPHOLSTERED LIFT CHAIR - $300309-371-6077
7/9/16FREE25 EGG CARTONS309-596-2447
7/9/16FSMURRAY RIDING MOWER, 40" DECK - $400309-582-6814
7/16/16FSFULL SIZE MAPLE BED FRAME - $50309-582-5464
7/16/16FSBABY CRADLE - $20309-536-2876
7/16/16FSWEIGHT BENCH - $50309-536-2876
7/16/16FSDINING ROOM TABLE w/4 LEAVES & 4 CHAIRS, GC - $75309-716-0441
7/16/16FSPEPSI CRATES - BEST OFFER309-331-4112
7/16/16FS4 - 285 70 R17 TIRES - $125309-337-5204
7/16/16FSLARSON STORM DOOR, 36"x80", LEFT SIDE OPEN - $100309-337-0057
7/16/16FSSLIDING WINDOW, 63 1/2" x 51 1/2" - $700309-337-0057
7/16/16FSCORNER ENTERTAINMENT CENTER - $20309-582-3657
7/16/16FSGRANDFATHER CLOCK - $100309-507-3684
7/16/16FSDISHWASHER - $50309-507-3684
7/16/16FSOUTDOOR FIRE PIT w/CHAIRS, ETC. - $50309-507-3684
7/16/16FSELECTRIC FIREPLACE - $50309-507-3684
7/16/16FSFULL SIZE TRUCK ROLL BAR - $50309-371-0054
7/16/16FSHEAVY DUTY TRAILER HITCH - $20309-371-0054
7/16/16FSFOLDING WHEELCHAIR - $50309-371-0054
7/16/16FSFOLDING WALKER - $20309-371-0054
7/23/16FREE7 MONTH OLD FEMALE KITTEN309-574-0913
7/23/16FREESWIVEL ROCKER309-582-8380
7/23/16LFHOOD FOR A JOHN DEERE STX38 LAWN TRACTOR414-213-6700
in Aledo
7/23/16FS2008 YAMAHA 700 4-WHEELER309-737-3646
7/23/16FS or TRADECHAIN SAW w/CASE & 2 CHAINS - $50 OR WILL TRADE FOR A TRAIL CAMERA309-278-7186
7/23/16LFRIDING MOWER309-587-8570
7/23/16FSSILVER TONE PHONOGRAPH - $50309-582-2771
7/23/16FS1940s VINTAGE MANTLE CLOCK - $30309-582-2771
7/23/16FSLAMINATED WILLIE NELSON POSTER - $25309-582-2771
7/23/16FSFULL SIZE PICKUP ROLL BAR w/BRACKETS - $50309-582-2771
7/23/16LFUSED GOLF CART309-945-8795
7/23/16LFBATH TUB309-371-5566
7/23/16FS24 x 81 & 28 x 81 INTERIOR DOORS - $25 EACH563-506-6024
7/23/16FS3 BI-FOLD CLOSET DOORS - $25 EACH563-506-6024
7/23/16FSCORNER VANITY & MEDICINE CABINET - BEST OFFER563-506-6024
7/23/16FSJOHN DEERE 133 RIDING MOWER, 38" DECK - $900309-582-2302
7/30/16FS2 ROW ROTARY HOE $50309-299-3725
7/30/16FS3 BOTTOM PLOW $175309-299-3725
7/30/16FS3 SECTION HARROW $175309-299-3725
7/30/16FS4 ROW PLANTER $125309-299-3725
7/30/16LFELECTRIC LAWN MOWER309-371-9560
7/30/16FSCANON DIGITAL CAMERA $175309-738-3304
7/30/16FSPULL BEHIND LAWN THATCHER/SWEEPER $30309-945-8795
7/30/16FS4 JOHN DEERE COLLECTOR BIKES $50 EACH309-584-4509
7/30/16FS3 KIDS BIKES w/TRAINING WHEELS $20 EACH309-584-4509
7/30/16FSMISCELLANEOUS BIKES309-584-4509
7/30/16FS2008 YAMAHA 4WD 4-WHEELER w/SNOWBLADE, WINCH, HITCH, ETC. - BEST OFFER309-737-3646
7/30/16FSTWIN SIZE CAR BED $75 obo309-644-1751